| time (UTC) | temp C | wind direction | speed KPH | gust KPH | rain 1hr cm | rain 24hr cm | rain mn cm | humidity % | barometer mb |
| 20260509173042 | 12 | 279 | 1.6 | 12.9 | 0.00 | 0.58 | 0.38 | 92 | 1010.3 |
| 20260509171545 | 12 | 167 | 1.6 | 8.0 | 0.00 | 0.58 | 0.38 | 93 | 1010.1 |
| 20260509170042 | 11 | 0 | 1.6 | 8.0 | 0.05 | 0.58 | 0.38 | 94 | 1010.1 |
| 20260509164543 | 11 | 215 | 1.6 | 9.7 | 0.05 | 0.58 | 0.38 | 94 | 1010.1 |
| 20260509163046 | 11 | 46 | 1.6 | 6.4 | 0.05 | 0.58 | 0.38 | 94 | 1010.2 |
| 20260509161545 | 10 | 0 | 0.0 | 6.4 | 0.05 | 0.58 | 0.38 | 94 | 1010.1 |
| 20260509160045 | 10 | 173 | 1.6 | 8.0 | 0.00 | 0.53 | 0.33 | 94 | 1009.9 |
| 20260509154544 | 10 | 264 | 1.6 | 9.7 | 0.00 | 0.53 | 0.33 | 94 | 1009.9 |
| 20260509153048 | 10 | 69 | 1.6 | 8.0 | 0.00 | 0.53 | 0.33 | 94 | 1010.0 |
| 20260509151545 | 10 | 304 | 1.6 | 9.7 | 0.00 | 0.53 | 0.33 | 94 | 1010.0 |
| 20260509150045 | 10 | 281 | 0.0 | 4.8 | 0.05 | 0.53 | 0.33 | 94 | 1009.9 |
| 20260509144542 | 10 | 147 | 0.0 | 4.8 | 0.10 | 0.53 | 0.33 | 95 | 1010.0 |
| 20260509143057 | 10 | 0 | 1.6 | 6.4 | 0.10 | 0.53 | 0.33 | 94 | 1010.0 |
| 20260509141543 | 10 | 0 | 0.0 | 4.8 | 0.10 | 0.53 | 0.33 | 95 | 1010.2 |
| 20260509140058 | 10 | 338 | 3.2 | 8.0 | 0.08 | 0.48 | 0.28 | 95 | 1010.2 |
| 20260509134542 | 10 | 347 | 1.6 | 9.7 | 0.05 | 0.43 | 0.23 | 95 | 1010.2 |
| 20260509133045 | 10 | 100 | 1.6 | 6.4 | 0.08 | 0.43 | 0.23 | 95 | 1010.3 |
| 20260509131542 | 10 | 0 | 0.0 | 3.2 | 0.13 | 0.43 | 0.23 | 94 | 1010.4 |
| 20260509130041 | 9 | 46 | 1.6 | 8.0 | 0.10 | 0.41 | 0.20 | 94 | 1010.4 |
| 20260509124540 | 9 | 153 | 3.2 | 8.0 | 0.10 | 0.38 | 0.18 | 94 | 1010.3 |
| 20260509123047 | 9 | 64 | 1.6 | 6.4 | 0.08 | 0.36 | 0.15 | 94 | 1010.4 |
| 20260509121543 | 9 | 195 | 0.0 | 6.4 | 0.03 | 0.30 | 0.10 | 94 | 1010.5 |
| 20260509120045 | 9 | 165 | 1.6 | 6.4 | 0.03 | 0.30 | 0.10 | 94 | 1010.4 |
| 20260509114542 | 9 | 296 | 1.6 | 9.7 | 0.00 | 0.28 | 0.08 | 94 | 1010.4 |
| 20260509113039 | 8 | 223 | 3.2 | 8.0 | 0.00 | 0.28 | 0.08 | 94 | 1010.3 |
| 20260509111538 | 8 | 0 | 1.6 | 6.4 | 0.00 | 0.28 | 0.08 | 94 | 1010.4 |
| 20260509110045 | 8 | 175 | 0.0 | 6.4 | 0.03 | 0.28 | 0.08 | 94 | 1010.4 |
| 20260509104543 | 8 | 0 | 0.0 | 8.0 | 0.03 | 0.28 | 0.08 | 94 | 1010.4 |
| 20260509103050 | 8 | 269 | 3.2 | 8.0 | 0.03 | 0.28 | 0.08 | 94 | 1010.3 |
| 20260509101544 | 8 | 0 | 0.0 | 0.0 | 0.00 | 0.25 | 0.05 | 94 | 1010.4 |
| 20260509100049 | 7 | 0 | 0.0 | 0.0 | 0.03 | 0.25 | 0.05 | 95 | 1010.5 |
| 20260509094542 | 7 | 0 | 0.0 | 0.0 | 0.03 | 0.25 | 0.05 | 95 | 1010.6 |
| 20260509093043 | 7 | 0 | 0.0 | 3.2 | 0.03 | 0.25 | 0.05 | 94 | 1010.6 |
| 20260509091541 | 7 | 51 | 1.6 | 6.4 | 0.03 | 0.25 | 0.05 | 94 | 1010.5 |
| 20260509090048 | 7 | 0 | 0.0 | 0.0 | 0.00 | 0.23 | 0.03 | 94 | 1010.7 |
| 20260509084539 | 7 | 0 | 0.0 | 0.0 | 0.00 | 0.23 | 0.03 | 94 | 1010.7 |
| 20260509083051 | 7 | 0 | 0.0 | 0.0 | 0.00 | 0.23 | 0.03 | 94 | 1010.8 |
| 20260509081543 | 7 | 0 | 0.0 | 0.0 | 0.00 | 0.23 | 0.03 | 94 | 1010.6 |
| 20260509080043 | 7 | 0 | 0.0 | 0.0 | 0.00 | 0.23 | 0.03 | 94 | 1010.5 |
| 20260509074545 | 7 | 0 | 0.0 | 0.0 | 0.00 | 0.23 | 0.03 | 94 | 1010.3 |
| 20260509073046 | 7 | 0 | 0.0 | 0.0 | 0.00 | 0.23 | 0.03 | 94 | 1010.5 |
| 20260509071549 | 7 | 0 | 0.0 | 0.0 | 0.00 | 0.23 | 0.03 | 94 | 1010.8 |
| 20260509070046 | 7 | 0 | 0.0 | 4.8 | 0.00 | 0.23 | 0.03 | 94 | 1010.9 |
| 20260509064546 | 7 | 0 | 0.0 | 4.8 | 0.00 | 0.23 | 0.03 | 94 | 1011.0 |
| 20260509063041 | 7 | 0 | 0.0 | 0.0 | 0.00 | 0.23 | 0.03 | 94 | 1011.2 |
| 20260509061552 | 7 | 140 | 1.6 | 4.8 | 0.00 | 0.23 | 0.03 | 94 | 1011.4 |
| 20260509060040 | 7 | 0 | 1.6 | 4.8 | 0.00 | 0.23 | 0.03 | 94 | 1011.6 |
| 20260509054551 | 7 | 0 | 1.6 | 6.4 | 0.00 | 0.23 | 0.03 | 94 | 1011.9 |
| 20260509053047 | 7 | 142 | 1.6 | 6.4 | 0.00 | 0.23 | 0.03 | 94 | 1012.0 |
| 20260509051543 | 7 | 140 | 0.0 | 4.8 | 0.03 | 0.23 | 0.03 | 94 | 1011.9 |
| 20260509050051 | 7 | 142 | 1.6 | 6.4 | 0.03 | 0.23 | 0.03 | 94 | 1012.3 |
| 20260509044539 | 7 | 0 | 0.0 | 0.0 | 0.05 | 0.23 | 0.03 | 94 | 1012.6 |
| 20260509043052 | 7 | 0 | 0.0 | 0.0 | 0.05 | 0.23 | 0.03 | 94 | 1012.8 |
| 20260509041545 | 7 | 0 | 0.0 | 0.0 | 0.05 | 0.20 | 0.00 | 94 | 1013.0 |
| 20260509040049 | 7 | 0 | 0.0 | 0.0 | 0.08 | 0.20 | 0.00 | 94 | 1013.3 |
| 20260509034542 | 8 | 0 | 0.0 | 0.0 | 0.05 | 0.18 | 0.18 | 93 | 1013.4 |
| 20260509033040 | 8 | 0 | 0.0 | 0.0 | 0.05 | 0.18 | 0.18 | 93 | 1013.4 |
| 20260509031552 | 8 | 0 | 0.0 | 0.0 | 0.05 | 0.15 | 0.15 | 93 | 1013.7 |
| 20260509030046 | 8 | 0 | 0.0 | 0.0 | 0.03 | 0.13 | 0.13 | 93 | 1013.6 |
| 20260509024543 | 8 | 0 | 0.0 | 0.0 | 0.03 | 0.13 | 0.13 | 93 | 1013.6 |
| 20260509023041 | 8 | 0 | 0.0 | 0.0 | 0.03 | 0.13 | 0.13 | 93 | 1013.6 |
| 20260509021544 | 8 | 0 | 0.0 | 0.0 | 0.00 | 0.10 | 0.10 | 92 | 1013.6 |
| 20260509020046 | 8 | 0 | 0.0 | 0.0 | 0.00 | 0.10 | 0.10 | 92 | 1013.2 |
| 20260509014545 | 8 | 0 | 0.0 | 0.0 | 0.00 | 0.10 | 0.10 | 92 | 1013.0 |
| 20260509013046 | 8 | 0 | 0.0 | 0.0 | 0.00 | 0.10 | 0.10 | 92 | 1013.0 |
| 20260509011547 | 8 | 0 | 0.0 | 3.2 | 0.00 | 0.10 | 0.10 | 92 | 1012.7 |
| 20260509010044 | 8 | 0 | 0.0 | 1.6 | 0.00 | 0.10 | 0.10 | 92 | 1012.7 |
| 20260509004549 | 8 | 0 | 0.0 | 1.6 | 0.00 | 0.10 | 0.10 | 92 | 1012.6 |
| 20260509003040 | 8 | 145 | 0.0 | 4.8 | 0.00 | 0.10 | 0.10 | 92 | 1012.4 |
| 20260509001545 | 8 | 145 | 3.2 | 6.4 | 0.00 | 0.10 | 0.10 | 92 | 1012.3 |
| 20260509000054 | 8 | 267 | 0.0 | 3.2 | 0.03 | 0.10 | 0.10 | 92 | 1012.5 |
| 20260508234545 | 8 | 267 | 1.6 | 4.8 | 0.03 | 0.10 | 0.10 | 91 | 1012.5 |
| 20260508233045 | 8 | 0 | 0.0 | 0.0 | 0.03 | 0.10 | 0.10 | 90 | 1012.5 |
| 20260508231548 | 9 | 0 | 0.0 | 3.2 | 0.05 | 0.10 | 0.10 | 90 | 1012.5 |
| 20260508230041 | 9 | 267 | 1.6 | 12.9 | 0.03 | 0.08 | 0.08 | 87 | 1012.4 |
| 20260508224550 | 9 | 0 | 4.8 | 16.1 | 0.03 | 0.08 | 0.08 | 87 | 1012.4 |
| 20260508223043 | 10 | 121 | 4.8 | 17.7 | 0.03 | 0.08 | 0.08 | 83 | 1012.8 |
| 20260508221544 | 10 | 257 | 3.2 | 19.3 | 0.00 | 0.05 | 0.05 | 80 | 1012.9 |
| 20260508220048 | 11 | 281 | 3.2 | 12.9 | 0.00 | 0.05 | 0.05 | 78 | 1012.7 |
| 20260508214542 | 11 | 275 | 4.8 | 19.3 | 0.00 | 0.05 | 0.05 | 77 | 1012.6 |
| 20260508213057 | 11 | 302 | 6.4 | 19.3 | 0.00 | 0.05 | 0.05 | 76 | 1012.5 |
| 20260508211545 | 11 | 267 | 6.4 | 22.5 | 0.03 | 0.05 | 0.05 | 76 | 1012.5 |
| 20260508210048 | 11 | 221 | 3.2 | 12.9 | 0.03 | 0.05 | 0.05 | 78 | 1012.6 |
| 20260508204544 | 11 | 283 | 6.4 | 25.7 | 0.03 | 0.05 | 0.05 | 79 | 1012.6 |
| 20260508203050 | 11 | 271 | 4.8 | 17.7 | 0.03 | 0.05 | 0.05 | 80 | 1012.6 |
| 20260508201551 | 11 | 277 | 4.8 | 14.5 | 0.00 | 0.03 | 0.03 | 80 | 1012.8 |
| 20260508200043 | 11 | 264 | 4.8 | 14.5 | 0.00 | 0.03 | 0.03 | 79 | 1012.7 |
| 20260508194548 | 11 | 211 | 3.2 | 11.3 | 0.00 | 0.03 | 0.03 | 80 | 1012.9 |
| 20260508193053 | 11 | 275 | 3.2 | 9.7 | 0.03 | 0.03 | 0.03 | 82 | 1012.9 |
| 20260508191542 | 11 | 268 | 4.8 | 16.1 | 0.03 | 0.03 | 0.03 | 81 | 1013.1 |
| 20260508190044 | 11 | 0 | 3.2 | 9.7 | 0.03 | 0.03 | 0.03 | 83 | 1013.0 |
| 20260508184547 | 11 | 0 | 0.0 | 9.7 | 0.03 | 0.03 | 0.03 | 81 | 1012.6 |
| 20260508183046 | 12 | 0 | 4.8 | 11.3 | 0.00 | 0.00 | 0.00 | 70 | 1012.8 |
| 20260508181608 | 13 | 296 | 1.6 | 11.3 | 0.00 | 0.00 | 0.00 | 64 | 1012.4 |
| 20260508174542 | 13 | 260 | 9.7 | 20.9 | 0.00 | 0.00 | 0.00 | 61 | 1012.7 |